STARLINK-11457, 62919

Orbit data source: Space-Track

STARLINK-11457, 62919 is a payload satellite owned by SpaceX/Seattle (US) in LEO that was launched on Sat, 08 Feb 2025 UTC via an FALCON 9 launch vehicle from the Air Force Eastern Test Range (AFETR). Payload-class satellites include a variety of spacecraft equipped with specific instruments for various scientific and technological missions. These include communications satellites like Starlink; space stations such as the ISS; scientific satellites like the Hubble; Earth observation satellites from companies like Planet Labs, Umbra, and HawkEye 360; GPS; miniature CubeSats for education and research; and military/defense satellites.

Loading next visibility...
Identifier
62919, 2025-027N
Orbit
LEO
Country
Flag of USUS
Related business
Manufacturer
SpaceX/Seattle
Mission
Operational Commercial Communications
Bus & Motor
STARLINK V2MD, Unknown motor
Mass
960 kg wet, ~910 kg dry
Launch date (UTC)
2025-02-08 (7 months ago)
Launch vehicle
FALCON 9
Launch site
Air Force Eastern Test Range (AFETR)
Object type
Payload
Rocket body
Debris
Shape & HBR
Box + 2 Pan, 14.5 m
Radar Cross Section
36.964 m², Large (>1 m²)

Expand to show TLE details & history
Last TLE update: 23 hours ago

TLE from 23 hours ago
0 STARLINK-11457
1 62919U 25027N   25261.17428966  .00232173  00000-0  17616-2 0  9993
2 62919  42.9997 307.1951 0001596 304.9815  55.0903 15.70855455 36024
Epoch: 2025-09-18T04:10Z
TLE epoch observation values (Epoch: 2025-09-18T04:10:58.626Z)
Latitude
-0°
Longitude
-112.88885°
Altitude
355.607 km
Speed
7.698 km/s
True Right ascension
20h 28m 46s
True Declination
0° 00' 00"
Sunlit
Object was in full shadow at epoch
Visualization orbit readout
Latitude
Unknown
Longitude
Unknown
Altitude
Unknown
Speed
Unknown
Apparent Right ascension
Unknown
Apparent Declination
Unknown
Sunlit
N/A
Visualization observer readout
Local Sidereal Time
20:13:01
Azimuth
Unknown
Elevation
Unknown
Doppler factor
Unknown
Orbital elements
Apogee altitude
359.508 km
Perigee altitude
357.357 km
Semi-major axis
6,736.57 km
Eccentricity
0.00016
Inclination
42.9997°
RAAN
307.1951°
Arg. of periapsis
304.9815°
True anomaly
55.1053°
Mean anomaly
55.0903°
Eccentric anomaly
55.0978°
Mean motion
3.92541 °/min
Orbital period
91.71 mins
BSTAR
0.0017616
Loading maneuver chart data...
Computing Atmospheric mass density...
Loading historical data...
Loading historical data...
Loading historical data...
Loading historical data...
Loading historical data...
Loading historical data...
Loading historical data...

Documentation

Showing up to 5 results
|